Regional Weather Roundup
Issued by NWS Wakefield, VA

Home | Current Version | Previous Version | Text Only | Print | Product List | Glossary Off
Versions: 1 2 3 4 5 6 7 8 9 10 11 12 13 14 15 16 17 18 19 20 21 22 23 24 25 26 27

000
ASUS41 KAKQ 240810
RWRAKQ

REGIONAL WEATHER ROUNDUP
NATIONAL WEATHER SERVICE WAKEFIELD VA
400 AM EDT FRI OCT 24 2014

Note: "fair" indicates few or no clouds below 12,000 feet with no
significant weather and/or obstructions to visibility. * = Denotes
station may not report precipitation (e.g., rain,snow,etc.),
thunder or fog.

VAZ042-051-052>054-056-240900-
NORTHERN VIRGINIA

CITY           SKY/WX    TMP DP  RH WIND       PRES   REMARKS
WASH NATIONAL  PTCLDY    58  41  53 NW10G18   29.92F
DULLES         CLEAR     53  41  63 NW10      29.93S
FORT BELVOIR   CLEAR     54  42  63 NW7       29.93S
QUANTICO       CLEAR     53  43  68 NW6       29.94F
FREDERICKSBRG* CLEAR     55  43  66 NW8       29.94S
STAFFORD*      CLEAR     49  41  75 W3        29.98S
WARRENTON      CLEAR     52  46  82 CALM      29.94S
CULPEPER*      CLEAR     57  43  58 NW3       29.95S
MANASSAS*      CLEAR     54  43  66 NW8       29.94S
LEESBURG*      CLEAR     54  45  71 N10G17    29.95R
WINCHESTER     CLEAR     54  37  54 NW20G25   29.96R
FRONT ROYAL*   SUNNY     52  41  66 W3        29.96S
LURAY*         SUNNY     54  43  66 NW7       29.98F
$$

VAZ048-049-060>072-079>083-240900-
CENTRAL AND SOUTH CENTRAL VIRGINIA...AND NORTH CENTRAL NORTH CAROLINA

CITY           SKY/WX    TMP DP  RH WIND       PRES   REMARKS
RICHMOND       CLEAR     53  42  66 W10       29.95R
CHESTERFIELD*    N/A    N/A N/A N/A MISG        N/A
PETERSBURG*    CLEAR     48  40  74 W5        29.96F
HANOVER        CLEAR     47  42  83 W5        29.96S
TAPPAHANNOCK*  CLEAR     53  40  62 W5        29.93S
CHARLOTTSVILLE CLEAR     53  40  61 W9        29.96F
ORANGE*        CLEAR     45  41  87 SW6       29.96F
LOUISA*        CLEAR     46  43  87 W5        29.94S
FARMVILLE*     CLEAR     43  43 100 CALM      29.97S
CREWE*         MOSUNNY   49  40  70 NW10      29.96F
FORT PICKETT*  MOSUNNY   47  41  80 W7        29.97S
LUNENBURG*     MOSUNNY   48  42  79 CALM      29.97S
SOUTH HILL*    PTCLDY    52  43  71 NW3       30.03R
LAWRENCEVILLE* MOSUNNY   46  42  88 NW3       29.97R
ROANOKE RAPIDS MOSUNNY   48  43  81 NW3       29.97S
RALEIGH        PTCLDY    47  41  80 CALM      30.01R
$$

VAZ088>098-240900-
SOUTHEAST VIRGINIA

CITY           SKY/WX    TMP DP  RH WIND       PRES   REMARKS
NORFOLK        CLEAR     58  43  57 W8        29.92R
VIRGINIA BEACH CLEAR     57  44  62 W8        29.90S
NORFOLK NAVAL  CLEAR     59  45  59 W10G20    29.93S
WEST POINT*    CLEAR     55  43  63 W5        29.93F
NEWPORT NEWS   CLEAR     57  44  62 W8        29.93R
LANGLEY AFB    CLEAR     53  44  71 W9        29.92S
FORT EUSTIS    CLEAR     55  43  63 NW12      29.92R
WILLIAMSBURG*  CLEAR     54  46  76 W8        29.94R
HR EXEC AP*    SUNNY     48  43  81 NW5       29.95S
FRANKLIN*      CLEAR     46  43  87 NW5       29.94F
WAKEFIELD      CLEAR     49  42  77 CALM      29.95S
$$

VAZ020-022-025-037-045-240900-
WEST CENTRAL AND SOUTHWEST VIRGINIA

CITY           SKY/WX    TMP DP  RH WIND       PRES   REMARKS
STAUNTON*      CLEAR     39  35  88 CALM      30.01F
HOT SPRINGS VA CLEAR     40  38  91 W16       30.00F
LYNCHBURG      PTCLDY    44  40  85 VRB5      30.02R
DANVILLE       MOCLDY    51  40  65 W6        30.02S
SOUTH BOSTON*  NOT AVBL
MARTINSVILLE   CLOUDY    42  42 100 CALM      30.06F
ROANOKE        PTCLDY    45  39  79 W9        30.08R
BLACKSBURG     PTCLDY    37  37 100 CALM      30.08F
DUBLIN*        PTCLDY    45  41  87 CALM      30.09F
MARION*        PTCLDY    36  35  95 W7        30.13S FOG
HILLSVILLE*    MOCLDY    41  38  89 W5        30.08S
RICHLANDS*     PTSUNNY   43  41  93 CALM      30.12S
WISE*          MOCLDY    39  39 100 CALM      30.11F FOG
ABINGDON*      PTCLDY    38  37  98 E3        30.11F FOG
$$

MDZ021>025-VAZ099-100-240900-
SOUTHERN MARYLAND AND THE DELMARVA PENINSULA

CITY           SKY/WX    TMP DP  RH WIND       PRES   REMARKS
PATUXENT RIVER CLEAR     54  41  61 W13       29.90R
BAY BRIDGE APT   N/A     55  41  58 W15       29.89R
LEONARDTOWN    CLEAR     52  41  66 W5        29.92R
DOVER          CLOUDY    56  45  64 NW9       29.82S
GEORGETOWN     CLOUDY    54  45  71 CALM      29.86R
EASTON         CLOUDY    59  46  62 NW10      29.91R
CAMBRIDGE      MOCLDY    59  43  55 NW10G22   29.87S
SALISBURY      CLOUDY    55  48  77 W6        29.87R
OCEAN CITY     CLOUDY    51  45  79 W5        29.85R
WALLOPS ISLAND CLEAR     55  49  80 NW6       29.87S
ACCOMACK*      CLEAR     55  45  67 NW12G18   29.88F
$$

NCZ012>017-030>032-240900-
EASTERN NORTH CAROLINA

CITY           SKY/WX    TMP DP  RH WIND       PRES   REMARKS
ELIZABETH CITY CLEAR     51  44  77 W9        29.93F
AHOSKIE*       PTCLDY    46  43  91 CALM      29.96S
EDENTON*       CLEAR     53  46  75 NW6       29.94F
CURRITUCK*     CLEAR     51  44  77 W6        29.93F
KILL DEVIL HLS CLEAR     56  47  70 NW8       29.91S
MANTEO         CLEAR     57  47  69 NW12G21   29.92F
CAPE HATTERAS  CLEAR     59  49  69 NW9G21    29.92F
TARBORO*       PTSUNNY   48  45  88 CALM      30.00R
GOLDSBORO      MOCLDY    48  47  97 W5        29.97F
WASHINGTON     PTCLDY    48  45  87 CALM      29.97S
GREENVILLE     MOCLDY    48  46  93 CALM      30.00R
NEW BERN       CLEAR     50  45  83 NW3       29.98F
WILMINGTON     CLEAR     50  46  86 W3        29.99S
$$

VAZ048-240900-
ELSEWHERE

CITY           SKY/WX    TMP DP  RH WIND       PRES   REMARKS
HARRISBURG PA  MOCLDY    56  43  61 NW17      29.89R
BALTIMORE      PTCLDY    54  41  61 W10       29.89R
ANNAPOLIS      PTCLDY    56  42  59 W8        29.89R
ANDREWS AFB    CLEAR     55  41  60 NW12      29.91S
WILMINGTON DE  MOCLDY    57  45  64 NW10      29.85S
PHILADELPHIA   PTCLDY    56  45  66 NW5       29.84R
WILDWOOD NJ*   CLOUDY    55  43  62 NW9G20    29.83S
ATLANTIC CITY  PTCLDY    48  44  86 W6        29.82R
HENDERSON NC   PTCLDY    48  40  72 W5        30.00R
GREENSBORO     PTCLDY    46  40  79 CALM      30.03S
ROCKY MOUNT    MOCLDY    50  43  77 NW3       29.99R
FAYETTEVILLE   CLEAR     49  43  80 N5        30.00F
CHARLOTTE      MOCLDY    44  41  89 W3        30.05F
$$

VAZ100-240900-
MARINE

STATION/POSITION TIME  TEMP    WIND        PRES    WAVE   SWELL
                       AIR SEA DIR/SP/G            HT/PER HT/PER
                 (UTC) (F)     (DEG/KT/KT) (MB)    (FT/S) (FT/S)
44066 TX TWR #4  0800   57 66  330/ 21/ 25 1005.1R   9/ 7   2/11
CAPE MAY NJ      0800   57 61  330/ 12/ 20 1009.3F
LEWES DE         0800   56 58  310/ 10/ 12 1010.0R
15NM E FENWICK I 0800   59 64  300/ 17/ 23 1009.5R   5/ 7   2/ 9
OCEAN-CITY-INLET 0800   54 61  310/  6/  8 1010.3R
WACHAPREAGUE VA  0800   56 59  280/  2/  4 1011.7F
THOMAS POINT MD  0800   56 62  290/ 15/ 17 1013.1R
GOOSES REEF MD   0800   59     320/ 19/ 23 1012.4S
COVE POINT MD    0800   58     320/ 15/ 21 1011.9R
SOLOMONS ISLAND  0800      64                N/A
BISHOPS HEAD MD  0800   58 56  310/ 15/ 19 1011.4S
PINEY POINT MD   0800          340/ 25/ 29   N/A
POTOMAC MD       0800   60     330/ 19/ 25 1011.7S
CAMBRIDGE MD     0800   59 60  300/ 13/ 20 1011.4R
LEWISETTA VA     0800   58 60  330/ 14/ 18 1012.2S
RAPPAHANNOCK LGT 0800          310/ 23/ 26 1012.3F
STINGRAY PT      0800   59     310/ 17/ 21 1013.0S
YORK RVR RNG VA  0800   57     330/ 14/ 17 1011.9F
YORKTOWN VA      0800   58 64  300/ 14/ 16 1012.4R
JAMESTOWN VA     0800   56     320/ 14/ 17   N/A
DOMINION TERM VA 0800   57     280/ 14/ 16 1013.1R
KIPTOPEKE VA     0800      66  340/ 22/ 26   N/A
CHES BAY BRIDGE  0800   59 65  290/ 18/ 21 1012.2R
CHESAPEAKE LGHT  0700   61     320/ 25/ 27 1012.8S
WILLOUBY STN VA  0800   58     300/ 14/ 17 1011.7R
S CRANEY ISL VA  0800          240/  8/ 11 1012.9S
CAPE HENRY BUOY  0800      68                N/A     5/ 7
1ST LANDING BUOY 0800   61     320/ 19/ 23 1012.0R
CAPE CHARLES BUO 0800      66                N/A     4/ 7   2/ 7
64NM E OF VA BCH 0800   63 66  330/ 19/ 23 1010.7F   6/ 6
DUCK PIER NC     0800   56 66  300/ 16/ 19 1012.1F
44100 DUCK FRF   0800      68                N/A     5/ 8
44056 DUCK FRF   0800                        N/A     4/ 8
OREGON INLET NC  0800   58 64  310/ 13/ 17 1012.8F
HATTERAS NC      0800   62 64  320/ 17/ 20 1013.7S
DIAMOND SHLS NC  0800   64     320/ 21/ 27 1012.8F   4/ 5   2/ 8
CAPE LOOKOUT NC  0700   60     340/  7/  9 1014.2F
$$



USA.gov is the U.S. government's official web portal to all federal, state and local government web resources and services.